GPS BIII-4

Last updated on Tue Sep 22 2026 00:03:02 GMT+0000 (Coordinated Universal Time)

1 46826U 20078A 26264.49609072 -.00000011 00000+0 00000+0 0 9991 2 46826 53.9666 206.8759 0076265 208.3799 154.7143 2.00565171 43441
UTC large
Height (km)
Speed (km/s)
/
Latitude / Longitude
Inclination (degrees)
Orbital Period (minutes)
Azimuth
Elevation
Range (km)
Doppler Factor

Next 0 passes for location: London (51.5072 / 0.1276)

No passes found over London.
GPS BIII-4